Regional Weather Roundup
Issued by NWS

Home | Current Version | Previous Version | Graphics & Text | Print | Product List | Glossary On
Versions: 1 2 3 4 5 6 7 8 9 10 11 12 13 14 15 16 17 18 19 20 21 22 23 24 25 26 27 28 29 30 31 32 33 34 35 36 37 38 39 40 41 42 43 44 45 46 47 48 49 50
000
ASUS43 KMKX 220511
RWRWI

WISCONSIN REGIONAL WEATHER ROUNDUP
NATIONAL WEATHER SERVICE MILWAUKEE/SULLIVAN WI
1100 PM CST SUN DEC 21 2014

NOTE: "FAIR" INDICATES FEW OR NO CLOUDS BELOW 12,000 FEET WITH NO
SIGNIFICANT WEATHER AND/OR OBSTRUCTIONS TO VISIBILITY.

WIZ001-002-006>008-014>016-023>028-220600-
NORTHWEST WISCONSIN

CITY           SKY/WX    TMP DP  RH WIND       PRES   REMARKS
SUPERIOR ARPT  CLOUDY    35  33  94 S6        29.74S WCI  30
ASHLAND        CLOUDY    35  33  92 S6        29.78S WCI  30
HAYWARD        LGT RAIN  34  32  92 SE8       29.77R FOG     WCI  27
SIREN          RAIN      35  35  99 S6        29.75R WCI  30
CUMBERLAND     LGT RAIN  34  34 100 S9        29.75S WCI  26
RICE LAKE      LGT RAIN  35  34  97 SE8       29.78S WCI  28
CHETEK         RAIN      35  35  99 SE7       29.78S WCI  29
LADYSMITH      CLOUDY    35  35  99 SE12      29.81S FOG     WCI  27
EAU CLAIRE     CLOUDY    37  35  92 S9        29.80R WCI  30
MENOMONIE      RAIN      38  37  96 SE10G16   29.79S WCI  30
NEW RICHMOND   RAIN      35  35 100 S8        29.75S WCI  29
OSCEOLA        LGT RAIN  36  36 100 SE7       29.77S WCI  30
$$

WIZ003>005-009-010-017-018-220600-
NORTH CENTRAL WISCONSIN

CITY           SKY/WX    TMP DP  RH WIND       PRES   REMARKS
MANITOWISH WTR LGT SNOW  32  32 100 S8        29.81S WCI  25
ARBOR VITAE    LGT SNOW  34  32  93 S10       29.82S WCI  26
WOODRUFF       LGT SNOW  34  32  93 S10       29.82S WCI  26
RHINELANDER    CLOUDY    33  30  88 S10       29.84S WCI  25
EAGLE RIVER    LGT SNOW  32  32 100 S8        29.83S WCI  25
LAND O LAKES   LGT SNOW  33  32  96 S6        29.84R WCI  27
PHILLIPS       CLOUDY    33  32  99 S10       29.80S FOG     WCI  24
TOMAHAWK       CLOUDY    32  32  99 S6        29.84S FOG     WCI  26
MEDFORD        DRIZZLE   32  32  99 S13       29.83R WCI  23
MERRILL        CLOUDY    33  33  99 S7        29.86S FOG     WCI  27
$$

WIZ029-030-035-036-043>047-220600-
CENTRAL WISCONSIN

CITY           SKY/WX    TMP DP  RH WIND       PRES   REMARKS
WAUSAU         LGT SNOW  33  32  96 S14       29.86S FOG     WCI  23
MOSINEE        MIX PCPN  32  32 100 S14       29.87F WCI  22
MARSHFIELD     CLOUDY    34  32  92 S14       29.85S FOG     WCI  25
STEVENS POINT  CLOUDY    32  30  93 S10       29.89S FOG     WCI  24
WAUPACA        CLOUDY    37  31  81 S10       29.94S WCI  29
WAUTOMA        CLOUDY    36  32  85 S10       29.94S WCI  28
WISC RAPIDS    CLOUDY    35  30  82 S9G22     29.90S WCI  28
CAMP DOUGLAS   CLOUDY    35  35 100 SE13      29.88R WCI  27
$$

WIZ011>013-019>022-031-037>040-048>050-220600-
NORTHEAST WISCONSIN

CITY           SKY/WX    TMP DP  RH WIND       PRES   REMARKS
ANTIGO         LGT SNOW  31  31  99 S12       29.88R WCI  22
SHAWANO        CLOUDY    37  31  81 S10G16    29.95S WCI  29
OCONTO         CLOUDY    35  32  88 S10       29.98R WCI  27
STURGEON BAY   CLOUDY    36  32  87 S17G24    30.00S WCI  25
GREEN BAY      CLOUDY    36  30  79 S14       29.97S WCI  27
MANITOWOC      CLOUDY    37  32  82 S16       30.01S WCI  28
APPLETON       CLOUDY    34  30  86 S12G21    29.96S WCI  25
CLINTONVILLE   CLOUDY    34  30  86 S12       29.94S WCI  25
OSHKOSH        CLOUDY    35  29  78 S13       29.96F WCI  26
$$

WIZ032>034-041-042-053>061-220600-
SOUTHWEST WISCONSIN

CITY           SKY/WX    TMP DP  RH WIND       PRES   REMARKS
LA CROSSE      CLOUDY    38  34  85 S14       29.85R WCI  30
SPARTA         CLOUDY    36  32  86 SE9       29.87S WCI  29
VIROQUA        CLOUDY    34  34 100 S15G21    29.85S WCI  24
BOSCOBEL       CLOUDY    37  31  78 S9        29.90S WCI  30
PRAIRIE DU CHI CLOUDY    37  32  82 SE9G16    29.87F WCI  30
PLATTEVILLE    CLOUDY    34  32  92 SE16      29.90F WCI  24
$$

WIZ056-057-062-063-064-067-068-220600-
SOUTH CENTRAL WISCONSIN

CITY           SKY/WX    TMP DP  RH WIND       PRES   REMARKS
REEDSBURG      CLOUDY    34  31  89 S9        29.90F WCI  27
BARABOO/DELLS  CLOUDY    34  30  85 S18G25    29.91S FOG     WCI  23
LONE ROCK      CLOUDY    39  30  70 S9        29.92F WCI  33
MINERAL POINT  CLOUDY    36  32  87 SE16      29.90S WCI  26
MADISON        CLOUDY    35  29  78 S16       29.94F WCI  25
MIDDLETON      CLOUDY    36  31  83 S7        29.94F WCI  30
WATERTOWN      CLOUDY    34  32  92 SE6       29.97F WCI  29
MONROE         CLOUDY    34  32  93 S14       29.93F WCI  24
JANESVILLE     CLOUDY    36  30  80 S13       29.97F WCI  27
$$

WIZ051-052-058>065-066-070>072-220600-
SOUTHEAST WISCONSIN

CITY           SKY/WX    TMP DP  RH WIND       PRES   REMARKS
MILWAUKEE      CLOUDY    36  29  75 S12       30.02S WCI  28
WAUKESHA       CLOUDY    32  30  93 SE8       30.00F WCI  25
MILWAUKEE/TIMM CLOUDY    34  30  86 S9        30.02S WCI  26
RACINE         MOCLDY    35  29  78 S13G23    30.04S WCI  26
BURLINGTON     CLOUDY    32  28  86 SE8       30.00F WCI  25
KENOSHA        MOCLDY    34  29  82 S13       30.02S HAZE    WCI  25
FOND DU LAC    CLOUDY    35  29  78 S15       29.97F WCI  25
SHEBOYGAN      CLOUDY    36  30  79 S16       30.00F WCI  26
WEST BEND      CLOUDY    34  30  86 S9        29.99F WCI  26
JUNEAU         CLOUDY    33  30  88 SE10      29.97F WCI  25
$$

LSZ147-162-220600-
LAKE SUPERIOR

STATION/POSITION TIME  TEMP    WIND        PRES    WAVE
                       AIR SEA DIR/SP/G            HT/PER
                 (UTC) (F)     (DEG/KT/KT) (MB)    (FT/S)
DEVILS ISLAND    0500   36     160/ 12/ 15 1009.1R
PORT WING        0400   36     150/  2/  6 1008.1F
SAXON HARBOR     0400   37     180/  3/  7 1008.8F
$$

LMZ867-665-643>646-220600-
LAKE MICHIGAN

STATION/POSITION TIME  TEMP    WIND        PRES    WAVE
                       AIR SEA DIR/SP/G            HT/PER
                 (UTC) (F)     (DEG/KT/KT) (MB)    (FT/S)
CHAMBERS ISLAND  0400   37     160/  7/ 14 1015.6
NORTHPORT PIER   0405   36     150/ 13/ 26 1015.9F
SISTER BAY       0413          170/ 16/ 22   N/A
ALGOMA LAKESHORE 0415          210/ 27/ 31   N/A
KEWAUNEE LAKESHO 0400   37     180/ 19/ 22 1015.3F
SHEBOYGAN LAKESH 0500   38 36  190/ 21/ 24 1016.8F
PORT WASHINGTON  0400   38     180/ 15/ 20 1017.3
MILWAUKEE LAKESH 0400   37     170/ 17/ 20   N/A
KENOSHA   LAKESH 0500   35     170/ 21/ 24 1016.6S
$$

TC  - TEMPERATURE IN CELSIUS
VSB - VISIBILITY IN STATUTE MILES
WCI - WIND CHILL INDEX
HX  - HEAT INDEX




USA.gov is the U.S. government's official web portal to all federal, state and local government web resources and services.